[Iaude] MPEC B14: 2022 TF48 [a=1.30,e=0.49,i=1.2,H=27.8]

mpec at marsden.cfa.harvard.edu mpec at marsden.cfa.harvard.edu
Tue Jan 16 15:07:42 EST 2024


M.P.E.C. 2024-B14                              Issued 2024 January 16, 20:06 UT

     The Minor Planet Electronic Circulars contain information on unusual
         minor planets, routine data on comets and natural satellites,
         and occasional editorial announcements.  They are published
    on behalf of Division F of the International Astronomical Union by the
          Minor Planet Center, Smithsonian Astrophysical Observatory,
                          Cambridge, MA 02138, U.S.A.
			  
             Prepared using the Tamkin Foundation Computer Network

                              MPC at CFA.HARVARD.EDU
            URL https://www.minorplanetcenter.net/    ISSN 1523-6714

                                   2022 TF48                                    


Observations:
     K22T48F* C2022 10 02.36907201 02 47.784+12 48 33.30         21.08wUEB014F51
     K22T48F  C2022 10 02.38300201 02 49.797+12 49 39.32         21.47wUEB014F51
     K22T48F  C2022 10 02.39677701 02 51.756+12 50 44.61         21.18wUEB014F51
     K22T48F  C2022 10 02.41074401 02 53.720+12 51 50.95         21.38wUEB014F51
     K22T48F ZC2022 10 04.33389701 17 19.26 +17 25 17.7                VEB014I41
     K22T48F ZC2022 10 04.34888501 17 29.52 +17 29 15.0                VEB014I41
     K22T48F  C2022 10 05.03482101 31 44.07 +21 43 20.3          18.9 RoEB014K88
     K22T48F  C2022 10 05.03703501 31 47.70 +21 44 29.6          19.3 RoEB014K88
     K22T48F  C2022 10 05.03924501 31 51.29 +21 45 37.3          19.2 RoEB014K88

Observer details:
F51 Pan-STARRS 1, Haleakala.  Observers J. Bulger, T. Lowe, A. Schultz, I.
    Smith.  Measurers K. Chambers, S. Chastel, T. de Boer, J. Fairlamb, H.
    Gao, M. Huber, C.-C. Lin, E. Magnier, Y. Ramanjooloo, R. Wainscoat, R.
    Weryk.  1.8-m Ritchey-Chretien + CCD.
I41 Palomar Mountain--ZTF.  Observer Z. T. F. Collaboration.  Measurer K.
    Sarneczky.  1.2-m f/2.44 Oschin Schmidt + CCD.
K88 GINOP-KHK, Piszkesteto.  Observer K. Sarneczky.  0.60-m Schmidt + CCD.

Orbital elements:
2022 TF48                                                Earth MOID = 0.0008 AU
Epoch 2023 Sept. 13.0 TT = JDT 2460200.5                Veres                   
M 190.44343              (2000.0)            P               Q                  
n   0.66678257     Peri.  265.89007     -0.25552972     -0.96677902             
a   1.2976171      Node   198.91881     +0.89484410     -0.23394131             
e   0.4908728      Incl.    1.15738     +0.36600356     -0.10300383             
P   1.48           H   27.85          G   0.15           U   8                  
Residuals in seconds of arc
221002 F51  0.0   0.1+    221002 F51  0.0   0.0     221005 K88  0.2+  0.1-
221002 F51  0.0   0.0     221004 I41  0.4-  0.1-    221005 K88  0.2-  0.1+
221002 F51  0.0   0.0     221004 I41  0.1-  0.6+    221005 K88 (1.3-  1.4-)

Ephemeris:
2022 TF48                a,e,i = 1.30, 0.49, 1                   q = 0.6607
Date    TT    R. A. (2000) Decl.     Delta      r    Elong.  Phase     V
2023 12 17    19 58 52.2 -19 54 04   2.4255  1.6923    33.4    18.6    31.9
...
2024 01 01    20 33 18.8 -18 06 59   2.4410  1.6205    26.4    15.7    31.7
...
2024 01 09    20 52 16.4 -16 56 33   2.4366  1.5782    22.9    14.1    31.6
...
2024 01 15    21 06 46.6 -15 57 23   2.4276  1.5445    20.4    12.8    31.5
2024 01 16    21 09 13.1 -15 46 59   2.4257  1.5388    20.0    12.6    31.5
2024 01 17    21 11 40.0 -15 36 26   2.4236  1.5330    19.6    12.4    31.4
...
2024 01 23    21 26 30.4 -14 29 50   2.4082  1.4972    17.3    11.3    31.3
...
2024 01 31    21 46 43.7 -12 52 11   2.3808  1.4469    14.3     9.7    31.2
...
2024 02 15    22 26 15.1 -09 20 46   2.3094  1.3449     9.4     6.9    30.8

M. P. C. Staff               (C) Copyright 2024 MPC           M.P.E.C. 2024-B14





More information about the Iaude mailing list